Powrót do katalogu

SL-8 R/B

AktywnyLEO
NORAD 6207·ROCKET BODY·🇷🇺 Russia

Wystrzelony Sep 29, 1972 z Plesetsk Cosmodrome

Loading…

Następne Przeloty (najbliższe 24 godziny)

TLE

ŚwieżeSource: Space-Track

Epoka: Sep 14, 2026, 07:28 UTC

1 06207U 72074B   26257.31149505 -.00000031  00000-0  50804-4 0  9991
2 06207  65.8223 206.6468 0032018 268.3909 244.1745 13.76026459708898

Śledź SL-8 R/B w czasie rzeczywistym z AllMySat

Download on the App Store